#timestamp,LO_Frequency,Hit 
1505214015.9,286047000.0,N
1505214035.7,286047001.3,N
1505214055.5,286047005.3,N
1505214075.4,286047003.5,N
1505214095.2,286047006.1,N
1505214115.0,286047008.8,N
1505214115.9,286047008.8,N
1505214135.8,286047006.8,N
1505214155.6,286047005.3,N
1505214175.4,286047001.3,N
1505214195.2,286047001.9,N
1505214215.1,286047000.6,N
1505214216.0,286047000.6,N
1505214235.8,286047001.3,N
1505214255.7,286047003.4,N
1505214275.5,286047004.4,N
1505214295.3,286047000.6,N
1505214315.1,286047000.1,N
1505214335.9,286046998.3,N
1505214355.7,286046997.5,N
1505214375.5,286047001.0,N
1505214395.4,286046999.3,N
1505214415.2,286046996.6,N
1505214435.0,286046998.7,N
1505214435.9,286046998.7,N
1505214455.8,286046999.2,N
1505214475.6,286046995.5,N
1505214495.4,286046998.8,N
1505214515.3,286046999.9,N
1505214535.1,286046998.4,N
1505214536.0,286046998.4,N
1505214555.8,286047001.2,N
1505214575.7,286046998.6,N
1505214595.5,286047002.3,N
1505214615.3,286047005.2,N
1505214635.2,286047006.8,N
1505214655.9,286047005.8,N
1505214675.7,286047002.4,N
1505214695.5,286047004.2,N
1505214715.4,286047006.0,N
1505214735.2,286047003.5,N
1505214755.0,286047004.5,N
1505214755.9,286047004.5,N
1505214775.8,286047004.3,N
1505214795.6,286047004.2,N
1505214815.4,286047005.9,N
1505214835.3,286047004.6,N
1505214855.1,286047004.0,N
1505214856.0,286047004.0,N
1505214875.8,286047000.4,N
1505214895.7,286047004.0,N
1505214915.5,286047000.4,N
1505214935.3,286047005.5,N
1505214955.2,286047004.3,N
1505214975.9,286047000.8,N
1505214995.7,286047002.1,N
1505215015.6,286047003.4,N
1505215035.4,286047005.8,N
1505215055.2,286047007.4,P
1505215075.1,286047002.4,N
1505215076.0,286047002.4,N
1505215095.8,286047003.3,N
1505215115.6,286046999.8,N
1505215135.5,286047000.5,N
1505215155.3,286047000.4,N
1505215175.1,286046998.1,N
1505215195.8,286047004.4,N
1505215215.7,286047000.2,N
1505215235.5,286047005.4,N
1505215255.3,286047002.8,N
1505215275.2,286047001.9,N
1505215295.0,286047002.6,N
1505215295.9,286047002.6,N
1505215315.7,286046999.7,N
1505215335.6,286047004.1,N
1505215355.4,286046998.6,N
1505215375.2,286046999.2,N
1505215395.1,286046999.8,N
1505215396.0,286046999.8,N
1505215415.8,286047002.2,N
1505215435.6,286047000.2,N
1505215455.5,286047001.1,N
1505215475.3,286047002.8,N
1505215495.1,286046997.1,N
1505215515.9,286047001.2,N
1505215535.7,286046998.1,N
1505215555.5,286046997.5,N
1505215575.3,286046995.8,N
1505215595.2,286046995.1,N
1505215615.0,286046997.0,N
1505215615.9,286046997.0,N
1505215635.7,286046997.5,N
1505215655.6,286046998.2,N
1505215675.4,286047000.8,N
1505215695.2,286046999.5,N
1505215715.1,286046998.1,N
1505215716.0,286046998.1,N
1505215735.8,286047001.8,N
1505215755.6,286046998.6,N
1505215775.5,286046998.7,N
1505215795.3,286046996.9,N
1505215815.1,286047001.1,N
1505215835.9,286047002.8,N
1505215855.7,286046999.7,N
1505215875.5,286047002.4,N
1505215895.4,286046999.0,N
1505215915.2,286047000.0,N
1505215935.0,286046996.8,N
1505215935.9,286046996.8,N
1505215955.8,286046995.8,N
1505215975.6,286046997.5,N
1505215995.4,286046998.8,N
1505216015.2,286046996.2,N
1505216035.1,286046996.0,N
1505216036.0,286046996.0,N
1505216055.8,286047002.5,N
1505216075.6,286046999.8,N
1505216095.5,286046999.9,N
1505216115.3,286046999.6,N
1505216135.1,286047002.7,N
1505216155.9,286047000.6,N
1505216175.7,286047000.8,N
1505216195.5,286047002.9,N
1505216215.4,286047005.0,N
1505216235.2,286047005.5,N
1505216255.0,286047004.4,N
1505216255.9,286047004.4,N
1505216275.8,286046998.3,N
1505216295.6,286046995.1,N
1505216315.4,286046992.1,N
1505216335.3,286046991.9,N
1505216355.1,286046993.0,N
1505216356.0,286046993.0,N
1505216375.8,286046991.4,N
1505216395.7,286046993.3,N
1505216415.5,286046993.4,N
1505216435.3,286046995.8,N
1505216455.1,286046997.7,N
1505216475.9,286046995.2,N
1505216495.7,286046995.3,N
1505216515.5,286046993.9,N
1505216535.4,286046991.7,N
1505216555.2,286046994.7,N
1505216575.0,286046991.3,N
1505216575.9,286046991.3,N
1505216595.8,286046999.5,N
1505216615.6,286046996.4,N
1505216635.4,286046995.9,N
1505216655.3,286046994.9,N
1505216675.1,286046995.1,N
1505216676.0,286046995.1,N
1505216695.8,286046993.3,N
1505216715.7,286046991.9,N
1505216735.5,286046995.9,N
1505216755.3,286046998.6,N
1505216775.2,286046997.2,N
1505216795.9,286046997.9,N
1505216815.7,286046997.6,N
1505216835.6,286046995.9,N
1505216855.4,286046993.8,N
1505216875.2,286046995.0,N
1505216895.0,286046993.6,N
1505216895.9,286046993.6,N
1505216915.8,286046993.4,P
1505216935.6,286047002.5,P
1505216955.5,286047002.5,N
1505216975.3,286047007.6,N
1505216995.1,286047001.9,N
1505217015.8,286047003.7,N
1505217035.7,286047004.7,N
1505217055.5,286047006.0,N
1505217075.3,286047001.9,N
1505217095.2,286047004.4,N
1505217115.9,286047002.0,N
1505217135.7,286047000.5,N
1505217155.6,286047001.4,N
1505217175.4,286047002.6,N
1505217195.2,286047002.2,N
1505217215.1,286047007.0,N
1505217216.0,286047007.0,N
1505217235.8,286047001.4,N
1505217255.6,286047002.3,N
1505217275.5,286047002.7,N
1505217295.3,286047004.2,N
1505217315.1,286047003.5,N
1505217335.9,286047001.4,N
1505217355.7,286046998.5,N
1505217375.5,286047002.6,N
1505217395.3,286046999.5,N
1505217415.2,286046996.7,N
1505217435.9,286047000.8,N
1505217455.7,286047000.4,N
1505217475.6,286046999.8,N
1505217495.4,286047001.0,N
1505217515.2,286047004.0,N
1505217535.1,286047005.8,N
1505217536.0,286047005.8,N
1505217555.8,286047001.9,N
1505217575.6,286046999.7,N
1505217595.5,286047001.6,N
